Home > Weather > Stanley > Past weeks

Flag for Falkland Islands Past Weather in Stanley, Falkland Islands — Yesterday and Last 2 Weeks

Now
39 °F

Sprinkles. Partly cloudy.


Feels Like: 30 °F
Forecast: N/A
Wind: 17 mph from North

Location: Mount Pleasant Airport

Current Time: Aug 28, 2016 at 7:49:17 PM

Latest Report: Aug 28, 2016 at 6:50 PM


Visibility: N/A

Pressure: 30.15 "Hg

Humidity: 87%

Dew Point: 36 °F

Location of StanleyLocation

Past Weather in Stanley — Graph

°F

Stanley Temperature Yesterday

Maximum temperature yesterday: 39 °F (at 12:50 PM)
Minimum temperature yesterday: 32 °F (at 3:50 AM)
Average temperature yesterday: 34 °F

High & Low Weather Summary for the Past Weeks

 TemperatureHumidityPressure
High45 °F (Aug 22, 11:50 AM)100% (Aug 13, 5:50 PM)30.21 "Hg (Aug 13, 5:50 PM)
Low21 °F (Aug 13, 11:50 PM)57% (Aug 25, 4:50 AM)29.18 "Hg (Aug 16, 2:50 AM)
Average34 °F87%29.66 "Hg
* Reported Aug 13 5:50 PM — Aug 28 5:50 PM, Stanley, Weather by CustomWeather, © 2016

Note: Actual official high and low records may vary slightly from our data, if they occured in-between our weather recording intervals... More about our weather records

Advertising

Stanley Weather History for the Previous 24 Hours

Scroll right to see more
 ConditionsComfort  
Time TempWeatherWind HumidityBarometerVisibility
5:50 PM
Sun, Aug 28
39 °FPartly sunny.15 mph75%30.15 "HgN/A
4:50 PM39 °FBroken clouds.10 mph81%30.15 "HgN/A
2:50 PM41 °FSprinkles. Broken clouds.17 mph70%30.15 "HgN/A
1:50 PM41 °FScattered clouds.17 mph70%30.15 "HgN/A
12:50 PM43 °FPartly sunny.9 mph61%30.18 "HgN/A
11:50 AM39 °FPartly sunny.13 mph70%30.18 "HgN/A
10:50 AM37 °FPartly sunny.6 mph81%30.21 "HgN/A
9:50 AM34 °FBroken clouds.7 mph93%30.21 "HgN/A
8:50 AM32 °FSnow flurries. Broken clouds.8 mph93%30.21 "HgN/A
7:50 AM30 °FBroken clouds.7 mph100%30.21 "HgN/A
6:50 AM32 °FPartly cloudy.6 mph93%30.18 "HgN/A
5:50 AM32 °FPassing clouds.8 mph93%30.18 "HgN/A
4:50 AM32 °FPassing clouds.7 mph93%30.18 "HgN/A
3:50 AM30 °FPassing clouds.6 mph86%30.21 "HgN/A
2:50 AM28 °FPassing clouds.9 mph86%30.21 "HgN/A
1:50 AM30 °FPassing clouds.5 mph86%30.21 "HgN/A
12:50 AM32 °FPassing clouds.9 mph80%30.18 "HgN/A
11:50 PM
Sat, Aug 27
32 °FPassing clouds.8 mph87%30.18 "HgN/A
10:50 PM34 °FPassing clouds.7 mph87%30.18 "HgN/A
9:50 PM32 °FSprinkles. Passing clouds.3 mph100%30.15 "HgN/A
8:50 PM34 °FPassing clouds.3 mph93%30.15 "HgN/A
7:50 PM34 °FSprinkles. Partly cloudy.6 mph93%30.15 "HgN/A
Weather by CustomWeather, © 2016

See weather overviewHow to use our weather pages